Location: Bryńsk
(53.2000°N, 19.7833°E)
Time: 22:59:24
(UTC+02:00)

ISS - Visible Passes

Search period start: 22 September 2018 00:00
Search period end: 02 October 2018 00:00
Orbit: 403 x 408 km, 51.6° (Epoch: 23 September)

Date Brightness Start Highest point End Pass type
(mag) Time Alt. Az. Time Alt. Az. Time Alt. Az.
22 Sep -1.3 20:28:37 10° S 20:28:53 11° S 20:28:53 11° S visible
23 Sep -1.7 19:37:59 10° SSE 19:39:18 12° SE 19:39:38 12° SE visible
23 Sep -1.0 21:12:03 10° SW 21:12:21 12° SW 21:12:21 12° SW visible
24 Sep -2.6 20:20:29 10° SW 20:22:54 27° S 20:22:54 27° S visible
25 Sep -2.2 19:29:08 10° SSW 19:31:40 21° SSE 19:33:18 15° ESE visible
25 Sep -1.9 21:04:30 10° WSW 21:05:59 24° SW 21:05:59 24° SW visible
26 Sep -3.4 20:12:44 10° SW 20:15:54 43° SSE 20:16:15 41° SE visible
27 Sep -2.9 19:21:05 10° SW 19:24:05 32° SSE 19:26:26 14° E visible
27 Sep -2.4 20:57:02 10° WSW 20:59:06 34° WSW 20:59:06 34° WSW visible
28 Sep -3.7 20:05:10 10° WSW 20:08:25 58° S 20:09:12 43° ESE visible
28 Sep -0.7 21:41:32 10° W 21:41:52 12° W 21:41:52 12° W visible
29 Sep -3.4 19:13:20 10° WSW 19:16:32 48° SSE 19:19:14 13° E visible
29 Sep -2.7 20:49:36 10° W 20:51:54 41° WSW 20:51:54 41° WSW visible
30 Sep -3.8 19:57:39 10° W 20:00:57 67° S 20:01:54 41° ESE visible
30 Sep -0.7 21:34:06 10° W 21:34:34 13° W 21:34:34 13° W visible
01 Oct -3.6 19:05:44 10° WSW 19:09:00 62° S 19:11:53 13° E visible
01 Oct -2.8 20:42:07 10° W 20:44:32 41° WSW 20:44:32 41° WSW visible
